This is the latest recevied weather packets stored in our database for station/object W4SKW. If no packets are shown the sender has not sent any weather packets the latest 10 day(s).
| Time | Temp. | Humidity | Pressure | Rain* | Wind** | Luminosity | Snow |
|---|---|---|---|---|---|---|---|
| 1777226357 | 24.44° C | 71% | 1014.9 hPa | 0 mm | - | 778 W/m² | - |
| 1777226053 | 24.44° C | 71% | 1014.9 hPa | 0 mm | - | 778 W/m² | - |
| 1777225748 | 25° C | 70% | 1014.8 hPa | 0 mm | - | 836 W/m² | - |
| 1777225446 | 23.89° C | 74% | 1014.9 hPa | 0 mm | - | 810 W/m² | - |
| 1777225143 | 23.89° C | 71% | 1014.9 hPa | 0 mm | - | 800 W/m² | - |
| 1777224775 | 23.89° C | 78% | 1014.9 hPa | 0 mm | - | 778 W/m² | - |
| 1777224471 | 23.89° C | 78% | 1014.9 hPa | 0 mm | - | 778 W/m² | - |
| 1777224166 | 23.89° C | 78% | 1014.9 hPa | 0 mm | - | 778 W/m² | - |
| 1777223863 | 23.33° C | 75% | 1014.9 hPa | 0 mm | - | 771 W/m² | - |
| 1777223560 | 22.78° C | 74% | 1015.2 hPa | 0 mm | - | 770 W/m² | - |
| 1777223257 | 22.78° C | 80% | 1015.1 hPa | 0 mm | - | 770 W/m² | - |
| 1777222955 | 22.78° C | 77% | 1015.2 hPa | 0 mm | - | 759 W/m² | - |
| 1777222652 | 22.78° C | 77% | 1015.2 hPa | 0 mm | - | 759 W/m² | - |
| 1777222349 | 22.78° C | 73% | 1015 hPa | 0 mm | - | 755 W/m² | - |
| 1777222047 | 23.33° C | 77% | 1015.3 hPa | 0 mm | - | 747 W/m² | - |
| 1777221743 | 22.78° C | 75% | 1015.2 hPa | 0 mm | - | 737 W/m² | - |
| 1777221439 | 22.78° C | 76% | 1015.2 hPa | 0 mm | - | 738 W/m² | - |
| 1777221137 | 22.78° C | 74% | 1015.3 hPa | 0 mm | - | 733 W/m² | - |
| 1777220833 | 22.22° C | 81% | 1015.5 hPa | 0 mm | - | 750 W/m² | - |
| 1777220528 | 22.22° C | 77% | 1015.5 hPa | 0 mm | - | 718 W/m² | - |
| 1777220224 | 21.67° C | 79% | 1015.3 hPa | 0 mm | - | 675 W/m² | - |
| 1777219920 | 21.67° C | 83% | 1015.4 hPa | 0 mm | - | 640 W/m² | - |
| 1777219617 | 21.67° C | 79% | 1015.2 hPa | 0 mm | - | 775 W/m² | - |
| 1777219314 | 21.11° C | 81% | 1015.5 hPa | 0 mm | - | 382 W/m² | - |
| 1777219010 | 21.67° C | 80% | 1015.4 hPa | 0 mm | - | 718 W/m² | - |
* Rain latest hour (hover to see other rain measurements)
** Current wind speed in m/s (hover to see current wind gust speed)